PRIVATE WETTERSTATION BILLIGHEIM-ALLFELD                       ZURCK
Wetterdaten: Donnerstag, 24.08.2017
Datum Zeit Temp. A. Temp. A. min Temp. A. max Feuchte A. Luftdruck Regen Wind Richtung Richtung Sonnenschein ET Solar Taupunkt Windchill Windben Empfang
24.08.2017 00:00 16,2 C 16,2 C 16,3 C 86 % 1014,1 hPa 0,0 l/m 0,5 km/h (0 Bft) N-NW 345 0 min 0,000 mm 0 W/m 13,9 C 16,2 C 3,2 km/h (1 Bft) 100 %
24.08.2017 00:10 16,0 C 16,0 C 16,2 C 86 % 1014,1 hPa 0,0 l/m 0,0 km/h (0 Bft) N-NW 345 0 min 0,000 mm 0 W/m 13,7 C 16,0 C 0,0 km/h (0 Bft) 100 %
24.08.2017 00:20 15,9 C 15,9 C 16,1 C 86 % 1014,0 hPa 0,0 l/m 0,0 km/h (0 Bft) N-NW 345 0 min 0,000 mm 0 W/m 13,6 C 15,9 C 0,0 km/h (0 Bft) 100 %
24.08.2017 00:30 15,7 C 15,7 C 15,9 C 87 % 1014,1 hPa 0,0 l/m 0,0 km/h (0 Bft) N-NW 345 0 min 0,000 mm 0 W/m 13,5 C 15,7 C 0,0 km/h (0 Bft) 100 %
24.08.2017 00:40 15,6 C 15,6 C 15,7 C 87 % 1014,1 hPa 0,0 l/m 0,0 km/h (0 Bft) N-NW 345 0 min 0,000 mm 0 W/m 13,4 C 15,6 C 0,0 km/h (0 Bft) 100 %
24.08.2017 00:50 15,4 C 15,4 C 15,6 C 87 % 1014,1 hPa 0,0 l/m 0,0 km/h (0 Bft) N-NW 345 0 min 0,000 mm 0 W/m 13,2 C 15,4 C 0,0 km/h (0 Bft) 100 %
24.08.2017 01:00 15,3 C 15,3 C 15,4 C 88 % 1014,1 hPa 0,0 l/m 0,0 km/h (0 Bft) N-NW 345 0 min 0,000 mm 0 W/m 13,3 C 15,3 C 0,0 km/h (0 Bft) 100 %
24.08.2017 01:10 15,2 C 15,2 C 15,3 C 88 % 1014,0 hPa 0,0 l/m 0,0 km/h (0 Bft) N-NW 345 0 min 0,000 mm 0 W/m 13,2 C 15,2 C 0,0 km/h (0 Bft) 100 %
24.08.2017 01:20 15,1 C 15,1 C 15,2 C 88 % 1013,9 hPa 0,0 l/m 0,0 km/h (0 Bft) N-NW 345 0 min 0,000 mm 0 W/m 13,1 C 15,1 C 0,0 km/h (0 Bft) 100 %
24.08.2017 01:30 15,1 C 15,1 C 15,1 C 88 % 1013,9 hPa 0,0 l/m 0,6 km/h (0 Bft) N-NW 345 0 min 0,000 mm 0 W/m 13,1 C 15,1 C 3,2 km/h (1 Bft) 100 %
24.08.2017 01:40 15,1 C 15,1 C 15,1 C 88 % 1013,9 hPa 0,0 l/m 0,3 km/h (0 Bft) N-NW 345 0 min 0,000 mm 0 W/m 13,1 C 15,1 C 3,2 km/h (1 Bft) 100 %
24.08.2017 01:50 15,1 C 15,1 C 15,1 C 88 % 1013,9 hPa 0,0 l/m 0,0 km/h (0 Bft) N-NW 345 0 min 0,000 mm 0 W/m 13,1 C 15,1 C 0,0 km/h (0 Bft) 100 %
24.08.2017 02:00 15,1 C 15,1 C 15,1 C 88 % 1013,8 hPa 0,0 l/m 0,0 km/h (0 Bft) N-NW 345 0 min 0,000 mm 0 W/m 13,1 C 15,1 C 0,0 km/h (0 Bft) 100 %
24.08.2017 02:10 15,1 C 15,1 C 15,1 C 88 % 1013,7 hPa 0,0 l/m 0,0 km/h (0 Bft) N-NW 345 0 min 0,000 mm 0 W/m 13,1 C 15,1 C 0,0 km/h (0 Bft) 100 %
24.08.2017 02:20 15,1 C 15,1 C 15,1 C 88 % 1013,6 hPa 0,0 l/m 0,0 km/h (0 Bft) N-NW 345 0 min 0,000 mm 0 W/m 13,1 C 15,1 C 0,0 km/h (0 Bft) 100 %
24.08.2017 02:30 15,1 C 15,1 C 15,1 C 88 % 1013,6 hPa 0,0 l/m 0,0 km/h (0 Bft) N-NW 345 0 min 0,000 mm 0 W/m 13,1 C 15,1 C 0,0 km/h (0 Bft) 100 %
24.08.2017 02:40 15,1 C 15,1 C 15,1 C 88 % 1013,5 hPa 0,0 l/m 0,0 km/h (0 Bft) N-NW 345 0 min 0,000 mm 0 W/m 13,1 C 15,1 C 0,0 km/h (0 Bft) 100 %
24.08.2017 02:50 14,9 C 14,9 C 15,1 C 88 % 1013,6 hPa 0,0 l/m 0,0 km/h (0 Bft) N-NW 345 0 min 0,000 mm 0 W/m 12,9 C 14,9 C 0,0 km/h (0 Bft) 100 %
24.08.2017 03:00 14,9 C 14,9 C 14,9 C 88 % 1013,6 hPa 0,0 l/m 0,0 km/h (0 Bft) N-NW 345 0 min 0,000 mm 0 W/m 12,9 C 14,9 C 0,0 km/h (0 Bft) 100 %
24.08.2017 03:10 14,8 C 14,8 C 14,9 C 88 % 1013,5 hPa 0,0 l/m 0,0 km/h (0 Bft) N-NW 345 0 min 0,000 mm 0 W/m 12,8 C 14,8 C 0,0 km/h (0 Bft) 100 %
24.08.2017 03:20 14,7 C 14,7 C 14,8 C 88 % 1013,5 hPa 0,0 l/m 0,0 km/h (0 Bft) N-NW 345 0 min 0,000 mm 0 W/m 12,7 C 14,7 C 0,0 km/h (0 Bft) 100 %
24.08.2017 03:30 14,7 C 14,7 C 14,7 C 88 % 1013,6 hPa 0,0 l/m 0,0 km/h (0 Bft) N-NW 345 0 min 0,000 mm 0 W/m 12,7 C 14,7 C 0,0 km/h (0 Bft) 100 %
24.08.2017 03:40 14,6 C 14,6 C 14,7 C 89 % 1013,5 hPa 0,0 l/m 0,0 km/h (0 Bft) N-NW 345 0 min 0,000 mm 0 W/m 12,8 C 14,6 C 0,0 km/h (0 Bft) 100 %
24.08.2017 03:50 14,5 C 14,5 C 14,6 C 88 % 1013,5 hPa 0,0 l/m 0,0 km/h (0 Bft) N-NW 345 0 min 0,000 mm 0 W/m 12,5 C 14,5 C 0,0 km/h (0 Bft) 100 %
24.08.2017 04:00 14,4 C 14,4 C 14,6 C 88 % 1013,6 hPa 0,0 l/m 0,0 km/h (0 Bft) N-NW 345 0 min 0,000 mm 0 W/m 12,4 C 14,4 C 0,0 km/h (0 Bft) 100 %
24.08.2017 04:10 14,4 C 14,4 C 14,4 C 88 % 1013,6 hPa 0,0 l/m 0,0 km/h (0 Bft) N-NW 345 0 min 0,000 mm 0 W/m 12,4 C 14,4 C 0,0 km/h (0 Bft) 99 %
24.08.2017 04:20 14,3 C 14,3 C 14,4 C 89 % 1013,6 hPa 0,0 l/m 0,0 km/h (0 Bft) N-NW 345 0 min 0,000 mm 0 W/m 12,5 C 14,3 C 0,0 km/h (0 Bft) 100 %
24.08.2017 04:30 14,2 C 14,2 C 14,3 C 89 % 1013,6 hPa 0,0 l/m 0,0 km/h (0 Bft) N-NW 345 0 min 0,000 mm 0 W/m 12,4 C 14,2 C 0,0 km/h (0 Bft) 100 %
24.08.2017 04:40 14,2 C 14,2 C 14,2 C 89 % 1013,7 hPa 0,0 l/m 0,0 km/h (0 Bft) N-NW 345 0 min 0,000 mm 0 W/m 12,4 C 14,2 C 0,0 km/h (0 Bft) 100 %
24.08.2017 04:50 14,1 C 14,1 C 14,2 C 88 % 1013,8 hPa 0,0 l/m 0,0 km/h (0 Bft) N-NW 345 0 min 0,000 mm 0 W/m 12,1 C 14,1 C 0,0 km/h (0 Bft) 100 %
24.08.2017 05:00 14,2 C 14,1 C 14,2 C 89 % 1013,8 hPa 0,0 l/m 0,0 km/h (0 Bft) N-NW 345 0 min 0,000 mm 0 W/m 12,4 C 14,2 C 0,0 km/h (0 Bft) 100 %
24.08.2017 05:10 14,2 C 14,2 C 14,2 C 89 % 1013,9 hPa 0,0 l/m 0,0 km/h (0 Bft) N-NW 345 0 min 0,000 mm 0 W/m 12,4 C 14,2 C 0,0 km/h (0 Bft) 100 %
24.08.2017 05:20 14,2 C 14,2 C 14,2 C 89 % 1013,8 hPa 0,0 l/m 0,0 km/h (0 Bft) N-NW 345 0 min 0,000 mm 0 W/m 12,4 C 14,2 C 0,0 km/h (0 Bft) 100 %
24.08.2017 05:30 14,2 C 14,2 C 14,2 C 88 % 1013,9 hPa 0,0 l/m 0,0 km/h (0 Bft) N-NW 345 0 min 0,000 mm 0 W/m 12,2 C 14,2 C 0,0 km/h (0 Bft) 100 %
24.08.2017 05:40 14,2 C 14,1 C 14,2 C 88 % 1013,8 hPa 0,0 l/m 0,9 km/h (0 Bft) N-NO 23 0 min 0,000 mm 0 W/m 12,2 C 14,2 C 4,8 km/h (1 Bft) 100 %
24.08.2017 05:50 14,6 C 14,2 C 14,6 C 89 % 1013,9 hPa 0,0 l/m 1,7 km/h (1 Bft) NO 34 0 min 0,000 mm 0 W/m 12,8 C 14,6 C 4,8 km/h (1 Bft) 100 %
24.08.2017 06:00 14,7 C 14,4 C 14,7 C 89 % 1013,9 hPa 0,0 l/m 1,7 km/h (1 Bft) NO 34 0 min 0,000 mm 0 W/m 12,9 C 14,7 C 3,2 km/h (1 Bft) 100 %
24.08.2017 06:10 15,1 C 14,7 C 15,1 C 89 % 1014,0 hPa 0,0 l/m 0,3 km/h (0 Bft) NO 34 0 min 0,000 mm 0 W/m 13,3 C 15,1 C 4,8 km/h (1 Bft) 100 %
24.08.2017 06:20 15,6 C 15,1 C 15,6 C 89 % 1014,1 hPa 0,0 l/m 2,8 km/h (1 Bft) NO 40 0 min 0,000 mm 0 W/m 13,8 C 15,6 C 4,8 km/h (1 Bft) 100 %
24.08.2017 06:30 15,8 C 15,6 C 15,8 C 89 % 1014,1 hPa 0,0 l/m 2,2 km/h (1 Bft) NO 40 0 min 0,000 mm 0 W/m 14,0 C 15,8 C 4,8 km/h (1 Bft) 100 %
24.08.2017 06:40 16,0 C 15,8 C 16,0 C 89 % 1014,2 hPa 0,0 l/m 3,6 km/h (1 Bft) O 80 0 min 0,000 mm 7 W/m 14,2 C 16,0 C 6,4 km/h (2 Bft) 100 %
24.08.2017 06:50 15,9 C 15,9 C 16,0 C 89 % 1014,4 hPa 0,0 l/m 3,4 km/h (1 Bft) O 88 0 min 0,000 mm 12 W/m 14,1 C 15,9 C 6,4 km/h (2 Bft) 100 %
24.08.2017 07:00 15,8 C 15,8 C 15,9 C 88 % 1014,4 hPa 0,0 l/m 3,0 km/h (1 Bft) SO 134 0 min 0,000 mm 18 W/m 13,8 C 15,8 C 6,4 km/h (2 Bft) 91 %
24.08.2017 07:10 15,9 C 15,8 C 15,9 C 89 % 1014,4 hPa 0,0 l/m 0,6 km/h (0 Bft) SO 136 0 min 0,000 mm 26 W/m 14,1 C 15,9 C 3,2 km/h (1 Bft) 100 %
24.08.2017 07:20 15,8 C 15,8 C 15,9 C 89 % 1014,5 hPa 0,0 l/m 0,0 km/h (0 Bft) SO 136 0 min 0,000 mm 35 W/m 14,0 C 15,8 C 1,6 km/h (1 Bft) 99 %
24.08.2017 07:30 15,5 C 15,5 C 15,8 C 89 % 1014,7 hPa 0,0 l/m 0,0 km/h (0 Bft) SO 136 0 min 0,000 mm 46 W/m 13,7 C 15,5 C 0,0 km/h (0 Bft) 100 %
24.08.2017 07:40 15,6 C 15,4 C 15,6 C 89 % 1014,9 hPa 0,0 l/m 0,7 km/h (0 Bft) SO 136 0 min 0,000 mm 54 W/m 13,8 C 15,6 C 3,2 km/h (1 Bft) 100 %
24.08.2017 07:50 15,8 C 15,6 C 15,8 C 89 % 1014,9 hPa 0,0 l/m 3,2 km/h (1 Bft) SO 134 0 min 0,000 mm 67 W/m 14,0 C 15,8 C 6,4 km/h (2 Bft) 100 %
24.08.2017 08:00 16,1 C 15,8 C 16,1 C 89 % 1015,0 hPa 0,0 l/m 4,0 km/h (1 Bft) SO 142 0 min 0,000 mm 79 W/m 14,3 C 16,1 C 8,0 km/h (2 Bft) 100 %
24.08.2017 08:10 16,2 C 16,1 C 16,2 C 89 % 1015,0 hPa 0,0 l/m 4,1 km/h (1 Bft) SO 143 0 min 0,025 mm 91 W/m 14,4 C 16,2 C 6,4 km/h (2 Bft) 100 %
24.08.2017 08:20 16,5 C 16,2 C 16,5 C 89 % 1015,0 hPa 0,0 l/m 3,6 km/h (1 Bft) SO 146 0 min 0,000 mm 100 W/m 14,7 C 16,5 C 6,4 km/h (2 Bft) 100 %
24.08.2017 08:30 16,8 C 16,5 C 16,8 C 89 % 1015,0 hPa 0,0 l/m 2,6 km/h (1 Bft) S-SO 153 0 min 0,000 mm 84 W/m 15,0 C 16,8 C 8,0 km/h (2 Bft) 100 %
24.08.2017 08:40 16,9 C 16,8 C 16,9 C 89 % 1015,1 hPa 0,0 l/m 1,8 km/h (1 Bft) S-SO 163 0 min 0,000 mm 86 W/m 15,1 C 16,9 C 6,4 km/h (2 Bft) 99 %
24.08.2017 08:50 17,1 C 16,9 C 17,1 C 89 % 1015,2 hPa 0,0 l/m 0,0 km/h (0 Bft) S-SO 163 10 min 0,000 mm 288 W/m 15,3 C 17,1 C 1,6 km/h (1 Bft) 99 %
24.08.2017 09:00 18,0 C 17,1 C 18,0 C 89 % 1015,3 hPa 0,0 l/m 0,2 km/h (0 Bft) S-SO 165 10 min 0,077 mm 290 W/m 16,2 C 18,0 C 4,8 km/h (1 Bft) 99 %
24.08.2017 09:10 18,4 C 18,0 C 18,4 C 88 % 1015,4 hPa 0,0 l/m 0,3 km/h (0 Bft) S 189 10 min 0,000 mm 174 W/m 16,4 C 18,4 C 6,4 km/h (2 Bft) 99 %
24.08.2017 09:20 18,6 C 18,4 C 18,6 C 88 % 1015,4 hPa 0,0 l/m 0,4 km/h (0 Bft) S-SW 208 0 min 0,000 mm 149 W/m 16,6 C 18,6 C 6,4 km/h (2 Bft) 100 %
24.08.2017 09:30 18,9 C 18,6 C 18,9 C 88 % 1015,6 hPa 0,0 l/m 0,0 km/h (0 Bft) S-SW 198 10 min 0,000 mm 410 W/m 16,9 C 18,9 C 0,0 km/h (0 Bft) 98 %
24.08.2017 09:40 20,0 C 18,9 C 20,0 C 88 % 1015,6 hPa 0,0 l/m 0,5 km/h (0 Bft) S-SW 198 10 min 0,000 mm 475 W/m 17,9 C 20,0 C 4,8 km/h (1 Bft) 99 %
24.08.2017 09:50 20,8 C 20,0 C 20,8 C 87 % 1015,6 hPa 0,0 l/m 1,0 km/h (0 Bft) S 171 10 min 0,000 mm 533 W/m 18,6 C 20,8 C 9,7 km/h (2 Bft) 99 %
24.08.2017 10:00 21,3 C 20,8 C 21,3 C 86 % 1015,7 hPa 0,0 l/m 3,3 km/h (1 Bft) SW 215 10 min 0,203 mm 675 W/m 18,9 C 21,3 C 17,7 km/h (3 Bft) 99 %
24.08.2017 10:10 21,9 C 21,3 C 21,9 C 83 % 1015,7 hPa 0,0 l/m 0,7 km/h (0 Bft) SW 221 10 min 0,000 mm 357 W/m 18,9 C 21,9 C 8,0 km/h (2 Bft) 99 %
24.08.2017 10:20 22,2 C 21,9 C 22,2 C 79 % 1015,8 hPa 0,0 l/m 4,1 km/h (1 Bft) W 279 10 min 0,000 mm 527 W/m 18,4 C 22,2 C 11,3 km/h (2 Bft) 100 %
24.08.2017 10:30 22,7 C 22,2 C 22,7 C 76 % 1015,9 hPa 0,0 l/m 5,1 km/h (1 Bft) W 259 10 min 0,000 mm 640 W/m 18,2 C 22,7 C 20,9 km/h (4 Bft) 99 %
24.08.2017 10:40 23,2 C 22,7 C 23,2 C 75 % 1015,9 hPa 0,0 l/m 7,6 km/h (2 Bft) W 261 10 min 0,000 mm 332 W/m 18,5 C 22,8 C 19,3 km/h (3 Bft) 99 %
24.08.2017 10:50 23,4 C 23,2 C 23,4 C 72 % 1015,9 hPa 0,0 l/m 6,8 km/h (2 Bft) W-NW 288 10 min 0,000 mm 350 W/m 18,1 C 23,3 C 19,3 km/h (3 Bft) 99 %
24.08.2017 11:00 23,3 C 23,3 C 23,4 C 73 % 1015,9 hPa 0,0 l/m 5,1 km/h (1 Bft) W 261 10 min 0,279 mm 306 W/m 18,2 C 23,3 C 11,3 km/h (2 Bft) 100 %
24.08.2017 11:10 23,2 C 23,2 C 23,3 C 73 % 1015,8 hPa 0,0 l/m 5,2 km/h (1 Bft) W-SW 240 10 min 0,000 mm 807 W/m 18,1 C 23,2 C 19,3 km/h (3 Bft) 100 %
24.08.2017 11:20 23,7 C 23,2 C 23,7 C 71 % 1015,9 hPa 0,0 l/m 5,0 km/h (1 Bft) W-SW 248 10 min 0,000 mm 290 W/m 18,1 C 23,7 C 16,1 km/h (3 Bft) 100 %
24.08.2017 11:30 23,7 C 23,7 C 23,7 C 71 % 1015,9 hPa 0,0 l/m 5,5 km/h (1 Bft) W 265 10 min 0,000 mm 322 W/m 18,1 C 23,7 C 16,1 km/h (3 Bft) 100 %
24.08.2017 11:40 23,8 C 23,7 C 23,8 C 73 % 1015,9 hPa 0,0 l/m 4,7 km/h (1 Bft) NW 315 10 min 0,000 mm 663 W/m 18,7 C 23,8 C 11,3 km/h (2 Bft) 100 %
24.08.2017 11:50 24,1 C 23,8 C 24,1 C 70 % 1015,9 hPa 0,0 l/m 6,7 km/h (2 Bft) S-SW 206 10 min 0,000 mm 385 W/m 18,3 C 24,0 C 19,3 km/h (3 Bft) 100 %
24.08.2017 12:00 24,1 C 24,1 C 24,2 C 72 % 1015,8 hPa 0,0 l/m 10,1 km/h (2 Bft) SW 223 10 min 0,305 mm 570 W/m 18,7 C 23,1 C 29,0 km/h (5 Bft) 100 %
24.08.2017 12:10 24,2 C 24,1 C 24,2 C 69 % 1015,9 hPa 0,0 l/m 6,4 km/h (2 Bft) W-SW 240 10 min 0,000 mm 677 W/m 18,1 C 24,2 C 17,7 km/h (3 Bft) 100 %
24.08.2017 12:20 24,5 C 24,2 C 24,5 C 68 % 1015,8 hPa 0,0 l/m 10,1 km/h (2 Bft) SW 231 10 min 0,000 mm 823 W/m 18,2 C 23,6 C 22,5 km/h (4 Bft) 100 %
24.08.2017 12:30 25,1 C 24,5 C 25,1 C 62 % 1015,8 hPa 0,0 l/m 9,5 km/h (2 Bft) W-SW 253 10 min 0,000 mm 933 W/m 17,3 C 24,4 C 20,9 km/h (4 Bft) 100 %
24.08.2017 12:40 25,2 C 25,1 C 25,2 C 62 % 1015,8 hPa 0,0 l/m 8,1 km/h (2 Bft) W-NW 300 10 min 0,000 mm 700 W/m 17,4 C 24,8 C 24,1 km/h (4 Bft) 100 %
24.08.2017 12:50 25,4 C 25,2 C 25,4 C 61 % 1015,9 hPa 0,0 l/m 6,2 km/h (2 Bft) W-NW 286 10 min 0,000 mm 575 W/m 17,3 C 25,4 C 17,7 km/h (3 Bft) 100 %
24.08.2017 13:00 25,8 C 25,4 C 25,8 C 59 % 1015,9 hPa 0,0 l/m 8,5 km/h (2 Bft) W 265 10 min 0,483 mm 782 W/m 17,2 C 25,3 C 25,7 km/h (4 Bft) 100 %
24.08.2017 13:10 26,0 C 25,8 C 26,1 C 56 % 1015,5 hPa 0,0 l/m 5,6 km/h (1 Bft) NW 315 10 min 0,000 mm 510 W/m 16,5 C 26,0 C 19,3 km/h (3 Bft) 100 %
24.08.2017 13:20 25,9 C 25,9 C 26,0 C 58 % 1015,7 hPa 0,0 l/m 6,2 km/h (2 Bft) W-SW 242 10 min 0,000 mm 779 W/m 17,0 C 25,9 C 22,5 km/h (4 Bft) 100 %
24.08.2017 13:30 25,8 C 25,8 C 26,0 C 57 % 1015,6 hPa 0,0 l/m 6,8 km/h (2 Bft) W-SW 239 10 min 0,000 mm 870 W/m 16,6 C 25,7 C 17,7 km/h (3 Bft) 100 %
24.08.2017 13:40 26,0 C 25,8 C 26,0 C 58 % 1015,6 hPa 0,0 l/m 5,9 km/h (2 Bft) W-SW 256 10 min 0,000 mm 898 W/m 17,1 C 26,0 C 20,9 km/h (4 Bft) 100 %
24.08.2017 13:50 26,1 C 26,0 C 26,1 C 55 % 1015,6 hPa 0,0 l/m 9,1 km/h (2 Bft) W-NW 294 10 min 0,000 mm 798 W/m 16,3 C 25,5 C 22,5 km/h (4 Bft) 100 %
24.08.2017 14:00 26,2 C 26,1 C 26,2 C 57 % 1015,5 hPa 0,0 l/m 7,6 km/h (2 Bft) W-NW 303 10 min 0,508 mm 775 W/m 17,0 C 25,9 C 24,1 km/h (4 Bft) 99 %
24.08.2017 14:10 26,5 C 26,2 C 26,5 C 52 % 1015,6 hPa 0,0 l/m 6,9 km/h (2 Bft) W-NW 298 10 min 0,000 mm 557 W/m 15,8 C 26,4 C 19,3 km/h (3 Bft) 100 %
24.08.2017 14:20 26,4 C 26,4 C 26,5 C 55 % 1015,6 hPa 0,0 l/m 8,3 km/h (2 Bft) W-SW 254 10 min 0,000 mm 548 W/m 16,6 C 26,0 C 22,5 km/h (4 Bft) 100 %
24.08.2017 14:30 26,5 C 26,4 C 26,5 C 56 % 1015,6 hPa 0,0 l/m 8,1 km/h (2 Bft) W-SW 250 10 min 0,000 mm 756 W/m 17,0 C 26,2 C 17,7 km/h (3 Bft) 100 %
24.08.2017 14:40 26,5 C 26,5 C 26,6 C 54 % 1015,5 hPa 0,0 l/m 9,4 km/h (2 Bft) NW 311 10 min 0,000 mm 613 W/m 16,4 C 25,9 C 20,9 km/h (4 Bft) 100 %
24.08.2017 14:50 26,6 C 26,5 C 26,6 C 53 % 1015,5 hPa 0,0 l/m 6,9 km/h (2 Bft) W 259 10 min 0,000 mm 512 W/m 16,2 C 26,5 C 16,1 km/h (3 Bft) 100 %
24.08.2017 15:00 26,5 C 26,5 C 26,6 C 52 % 1015,5 hPa 0,0 l/m 6,6 km/h (2 Bft) W 281 10 min 0,457 mm 475 W/m 15,8 C 26,5 C 22,5 km/h (4 Bft) 100 %
24.08.2017 15:10 26,3 C 26,3 C 26,5 C 55 % 1015,5 hPa 0,0 l/m 6,4 km/h (2 Bft) W-NW 284 10 min 0,000 mm 605 W/m 16,5 C 26,3 C 20,9 km/h (4 Bft) 100 %
24.08.2017 15:20 26,3 C 26,3 C 26,4 C 54 % 1015,4 hPa 0,0 l/m 8,2 km/h (2 Bft) W 265 10 min 0,000 mm 499 W/m 16,2 C 25,9 C 19,3 km/h (3 Bft) 100 %
24.08.2017 15:30 26,1 C 26,1 C 26,3 C 55 % 1015,5 hPa 0,0 l/m 6,1 km/h (2 Bft) W-NW 288 10 min 0,000 mm 596 W/m 16,3 C 26,1 C 17,7 km/h (3 Bft) 100 %
24.08.2017 15:40 26,2 C 26,1 C 26,2 C 54 % 1015,3 hPa 0,0 l/m 7,5 km/h (2 Bft) S-SW 213 10 min 0,000 mm 541 W/m 16,1 C 26,0 C 17,7 km/h (3 Bft) 100 %
24.08.2017 15:50 26,1 C 26,1 C 26,2 C 52 % 1015,4 hPa 0,0 l/m 8,3 km/h (2 Bft) NW 305 10 min 0,000 mm 436 W/m 15,5 C 25,7 C 20,9 km/h (4 Bft) 100 %
24.08.2017 16:00 26,0 C 26,0 C 26,1 C 51 % 1015,5 hPa 0,0 l/m 7,0 km/h (2 Bft) W-SW 246 10 min 0,381 mm 357 W/m 15,1 C 25,9 C 20,9 km/h (4 Bft) 100 %
24.08.2017 16:10 25,8 C 25,8 C 26,0 C 48 % 1015,5 hPa 0,0 l/m 6,3 km/h (2 Bft) W 265 10 min 0,000 mm 308 W/m 13,9 C 25,8 C 16,1 km/h (3 Bft) 100 %
24.08.2017 16:20 25,4 C 25,4 C 25,8 C 47 % 1015,6 hPa 0,0 l/m 11,0 km/h (2 Bft) W-NW 290 10 min 0,000 mm 279 W/m 13,3 C 24,4 C 22,5 km/h (4 Bft) 100 %
24.08.2017 16:30 25,2 C 25,2 C 25,4 C 46 % 1015,5 hPa 0,0 l/m 7,6 km/h (2 Bft) W-NW 288 10 min 0,000 mm 338 W/m 12,7 C 24,9 C 20,9 km/h (4 Bft) 100 %
24.08.2017 16:40 25,3 C 25,2 C 25,3 C 47 % 1015,6 hPa 0,0 l/m 8,7 km/h (2 Bft) NW 304 10 min 0,000 mm 250 W/m 13,2 C 24,8 C 19,3 km/h (3 Bft) 100 %
24.08.2017 16:50 25,4 C 25,3 C 25,4 C 48 % 1015,6 hPa 0,0 l/m 6,5 km/h (2 Bft) W 280 10 min 0,000 mm 227 W/m 13,6 C 25,4 C 19,3 km/h (3 Bft) 100 %
24.08.2017 17:00 25,3 C 25,3 C 25,4 C 50 % 1015,5 hPa 0,0 l/m 7,4 km/h (2 Bft) W 277 10 min 0,254 mm 218 W/m 14,1 C 25,1 C 17,7 km/h (3 Bft) 100 %
24.08.2017 17:10 25,1 C 25,1 C 25,3 C 46 % 1015,6 hPa 0,0 l/m 8,7 km/h (2 Bft) W-SW 257 10 min 0,000 mm 204 W/m 12,7 C 24,5 C 22,5 km/h (4 Bft) 100 %
24.08.2017 17:20 24,9 C 24,9 C 25,1 C 47 % 1015,7 hPa 0,0 l/m 7,8 km/h (2 Bft) W-NW 299 10 min 0,000 mm 202 W/m 12,8 C 24,5 C 17,7 km/h (3 Bft) 100 %
24.08.2017 17:30 24,8 C 24,8 C 24,9 C 48 % 1015,7 hPa 0,0 l/m 7,4 km/h (2 Bft) NW 320 10 min 0,000 mm 179 W/m 13,0 C 24,5 C 16,1 km/h (3 Bft) 100 %
24.08.2017 17:40 24,6 C 24,6 C 24,8 C 48 % 1015,7 hPa 0,0 l/m 6,8 km/h (2 Bft) W-NW 299 10 min 0,000 mm 162 W/m 12,8 C 24,5 C 17,7 km/h (3 Bft) 100 %
24.08.2017 17:50 24,3 C 24,3 C 24,6 C 50 % 1015,6 hPa 0,0 l/m 4,6 km/h (1 Bft) NW 311 10 min 0,000 mm 172 W/m 13,2 C 24,3 C 9,7 km/h (2 Bft) 100 %
24.08.2017 18:00 24,3 C 24,3 C 24,3 C 50 % 1015,6 hPa 0,0 l/m 4,7 km/h (1 Bft) NW 306 10 min 0,178 mm 167 W/m 13,2 C 24,3 C 16,1 km/h (3 Bft) 99 %
24.08.2017 18:10 24,2 C 24,2 C 24,3 C 50 % 1015,7 hPa 0,0 l/m 5,6 km/h (1 Bft) W-NW 299 0 min 0,000 mm 148 W/m 13,1 C 24,2 C 16,1 km/h (3 Bft) 100 %
24.08.2017 18:20 23,9 C 23,9 C 24,2 C 52 % 1015,6 hPa 0,0 l/m 3,7 km/h (1 Bft) W-NW 294 0 min 0,000 mm 130 W/m 13,4 C 23,9 C 11,3 km/h (2 Bft) 100 %
24.08.2017 18:30 23,7 C 23,7 C 23,9 C 53 % 1015,7 hPa 0,0 l/m 3,3 km/h (1 Bft) W-NW 297 0 min 0,000 mm 142 W/m 13,5 C 23,7 C 9,7 km/h (2 Bft) 100 %
24.08.2017 18:40 23,6 C 23,6 C 23,7 C 54 % 1015,7 hPa 0,0 l/m 2,4 km/h (1 Bft) W-NW 299 0 min 0,000 mm 134 W/m 13,7 C 23,6 C 8,0 km/h (2 Bft) 100 %
24.08.2017 18:50 23,6 C 23,6 C 23,6 C 54 % 1015,7 hPa 0,0 l/m 1,6 km/h (1 Bft) W-NW 294 0 min 0,000 mm 139 W/m 13,7 C 23,6 C 9,7 km/h (2 Bft) 100 %
24.08.2017 19:00 23,7 C 23,6 C 23,7 C 54 % 1015,8 hPa 0,0 l/m 3,2 km/h (1 Bft) W-NW 285 0 min 0,127 mm 84 W/m 13,8 C 23,7 C 11,3 km/h (2 Bft) 100 %
24.08.2017 19:10 23,6 C 23,6 C 23,7 C 53 % 1015,9 hPa 0,0 l/m 3,7 km/h (1 Bft) NW 306 0 min 0,000 mm 69 W/m 13,4 C 23,6 C 9,7 km/h (2 Bft) 100 %
24.08.2017 19:20 23,3 C 23,3 C 23,6 C 54 % 1016,1 hPa 0,0 l/m 3,6 km/h (1 Bft) W 265 0 min 0,000 mm 56 W/m 13,5 C 23,3 C 9,7 km/h (2 Bft) 100 %
24.08.2017 19:30 23,1 C 23,1 C 23,3 C 54 % 1016,2 hPa 0,0 l/m 1,9 km/h (1 Bft) W-NW 283 0 min 0,000 mm 40 W/m 13,3 C 23,1 C 8,0 km/h (2 Bft) 100 %
24.08.2017 19:40 22,8 C 22,8 C 23,1 C 55 % 1016,3 hPa 0,0 l/m 0,6 km/h (0 Bft) W 273 0 min 0,000 mm 37 W/m 13,3 C 22,8 C 4,8 km/h (1 Bft) 100 %
24.08.2017 19:50 22,5 C 22,5 C 22,8 C 56 % 1016,4 hPa 0,0 l/m 0,6 km/h (0 Bft) W 273 0 min 0,000 mm 42 W/m 13,3 C 22,5 C 6,4 km/h (2 Bft) 99 %
24.08.2017 20:00 22,3 C 22,3 C 22,5 C 56 % 1016,3 hPa 0,0 l/m 0,0 km/h (0 Bft) W 273 0 min 0,050 mm 19 W/m 13,1 C 22,3 C 1,6 km/h (1 Bft) 100 %
24.08.2017 20:10 21,9 C 21,9 C 22,3 C 59 % 1016,5 hPa 0,0 l/m 0,0 km/h (0 Bft) W 273 0 min 0,000 mm 9 W/m 13,5 C 21,9 C 0,0 km/h (0 Bft) 100 %
24.08.2017 20:20 21,6 C 21,6 C 21,9 C 60 % 1016,4 hPa 0,0 l/m 0,0 km/h (0 Bft) W 273 0 min 0,000 mm 0 W/m 13,5 C 21,6 C 0,0 km/h (0 Bft) 100 %
24.08.2017 20:30 21,1 C 21,1 C 21,6 C 63 % 1016,5 hPa 0,0 l/m 0,0 km/h (0 Bft) W 273 0 min 0,000 mm 0 W/m 13,8 C 21,1 C 0,0 km/h (0 Bft) 100 %
24.08.2017 20:40 20,6 C 20,6 C 21,1 C 63 % 1016,6 hPa 0,0 l/m 0,0 km/h (0 Bft) W 273 0 min 0,000 mm 0 W/m 13,3 C 20,6 C 0,0 km/h (0 Bft) 100 %
24.08.2017 20:50 20,3 C 20,3 C 20,6 C 62 % 1016,5 hPa 0,0 l/m 0,0 km/h (0 Bft) W 273 0 min 0,000 mm 0 W/m 12,8 C 20,3 C 0,0 km/h (0 Bft) 100 %
24.08.2017 21:00 20,1 C 20,1 C 20,3 C 61 % 1016,4 hPa 0,0 l/m 0,0 km/h (0 Bft) W 273 0 min 0,000 mm 0 W/m 12,3 C 20,1 C 0,0 km/h (0 Bft) 99 %
24.08.2017 21:10 19,9 C 19,9 C 20,1 C 61 % 1016,6 hPa 0,0 l/m 0,0 km/h (0 Bft) W 273 0 min 0,000 mm 0 W/m 12,2 C 19,9 C 0,0 km/h (0 Bft) 100 %
24.08.2017 21:20 19,8 C 19,8 C 20,0 C 63 % 1016,4 hPa 0,0 l/m 0,0 km/h (0 Bft) W 273 0 min 0,000 mm 0 W/m 12,5 C 19,8 C 0,0 km/h (0 Bft) 100 %
24.08.2017 21:30 19,7 C 19,7 C 19,8 C 65 % 1016,3 hPa 0,0 l/m 0,0 km/h (0 Bft) W 273 0 min 0,000 mm 0 W/m 12,9 C 19,7 C 0,0 km/h (0 Bft) 100 %
24.08.2017 21:40 19,6 C 19,6 C 19,7 C 63 % 1016,2 hPa 0,0 l/m 0,5 km/h (0 Bft) W 273 0 min 0,000 mm 0 W/m 12,4 C 19,6 C 3,2 km/h (1 Bft) 100 %
24.08.2017 21:50 19,4 C 19,4 C 19,6 C 64 % 1016,1 hPa 0,0 l/m 1,1 km/h (1 Bft) W-NW 286 0 min 0,000 mm 0 W/m 12,4 C 19,4 C 4,8 km/h (1 Bft) 100 %
24.08.2017 22:00 19,3 C 19,3 C 19,4 C 67 % 1015,9 hPa 0,0 l/m 0,0 km/h (0 Bft) W-NW 286 0 min 0,000 mm 0 W/m 13,0 C 19,3 C 0,0 km/h (0 Bft) 100 %
24.08.2017 22:10 18,9 C 18,9 C 19,3 C 69 % 1016,1 hPa 0,0 l/m 0,0 km/h (0 Bft) W-NW 286 0 min 0,025 mm 0 W/m 13,1 C 18,9 C 0,0 km/h (0 Bft) 100 %
24.08.2017 22:20 18,6 C 18,5 C 18,9 C 71 % 1016,5 hPa 0,0 l/m 0,0 km/h (0 Bft) W-NW 286 0 min 0,001 mm 0 W/m 13,2 C 18,6 C 0,0 km/h (0 Bft) 100 %
24.08.2017 22:30 18,1 C 18,1 C 18,6 C 73 % 1016,8 hPa 0,0 l/m 0,0 km/h (0 Bft) W-NW 284 0 min 0,000 mm 0 W/m 13,2 C 18,1 C 1,6 km/h (1 Bft) 100 %
24.08.2017 22:40 17,8 C 17,8 C 18,1 C 73 % 1016,8 hPa 0,0 l/m 0,0 km/h (0 Bft) W-NW 284 0 min 0,000 mm 0 W/m 12,9 C 17,8 C 1,6 km/h (1 Bft) 99 %
24.08.2017 22:50 17,8 C 17,8 C 17,8 C 73 % 1016,9 hPa 0,0 l/m 0,0 km/h (0 Bft) W-NW 284 0 min 0,000 mm 0 W/m 12,9 C 17,8 C 0,0 km/h (0 Bft) 100 %
24.08.2017 23:00 17,8 C 17,8 C 17,8 C 74 % 1016,8 hPa 0,0 l/m 0,0 km/h (0 Bft) W-NW 284 0 min 0,000 mm 0 W/m 13,1 C 17,8 C 0,0 km/h (0 Bft) 100 %
24.08.2017 23:10 17,5 C 17,5 C 17,8 C 75 % 1016,9 hPa 0,0 l/m 0,0 km/h (0 Bft) W-NW 284 0 min 0,025 mm 0 W/m 13,0 C 17,5 C 0,0 km/h (0 Bft) 100 %
24.08.2017 23:20 17,3 C 17,3 C 17,5 C 75 % 1016,7 hPa 0,0 l/m 0,0 km/h (0 Bft) W-NW 284 0 min 0,000 mm 0 W/m 12,8 C 17,3 C 0,0 km/h (0 Bft) 100 %
24.08.2017 23:30 17,1 C 17,1 C 17,3 C 74 % 1016,8 hPa 0,0 l/m 0,0 km/h (0 Bft) W-NW 284 0 min 0,000 mm 0 W/m 12,4 C 17,1 C 0,0 km/h (0 Bft) 100 %
24.08.2017 23:40 17,0 C 17,0 C 17,1 C 75 % 1017,0 hPa 0,0 l/m 0,0 km/h (0 Bft) W-NW 284 0 min 0,000 mm 0 W/m 12,5 C 17,0 C 0,0 km/h (0 Bft) 100 %
24.08.2017 23:50 16,8 C 16,8 C 17,0 C 76 % 1017,0 hPa 0,0 l/m 0,0 km/h (0 Bft) W-NW 284 0 min 0,000 mm 0 W/m 12,5 C 16,8 C 0,0 km/h (0 Bft) 100 %
_ Min-Zeit 04:50 04:50 04:40 16:30 02:40 - 00:10 - - - - - 04:50 04:50 00:10 07:00
Minimum _ 14,1 C 14,1 C 14,2 C 46 % 1013,5 hPa - 0,0 km/h (0 Bft) - - - - - 12,1 C 14,1 C 0,0 km/h (0 Bft) 91 %
_ Max-Zeit 14:40 14:40 14:40 03:40 23:40 00:00 16:20 - - 08:50 14:00 12:30 10:10 14:50 12:00 00:00
Maximum _ 26,6 C 26,5 C 26,6 C 89 % 1017,0 hPa 0,0 l/m 11,0 km/h
W-NW (2 Bft)
- - 10 min 0,508 mm 933 W/m 18,9 C 26,5 C 29,0 km/h
S-SW (5 Bft)
100 %
Durchschnitt _ 20,0 C 19,9 C 20,1 C 72 % 1015,2 hPa #0,0 l/m 2,9 km/h (1 Bft) W-NW - #9:10 h #3,378 mm 349 W/m 14,4 C 19,9 C 8,2 km/h (2 Bft) 100 %
PRIVATE WETTERSTATION BILLIGHEIM-ALLFELD - www.neckar-odenwald-wetter.de - Holger Sonntag